#timestamp,LO_Frequency,Hit,StdDev 
1624431615.9,286046998.2,P
1624431635.7,286047000.4,P
1624431655.6,286047000.2,N
1624431675.4,286047000.9,N
1624431695.2,286047002.8,N
1624431715.1,286047001.5,N
1624431716.0,286047001.5,N
1624431735.8,286047003.1,N
1624431755.7,286047003.7,N
1624431775.5,286047003.2,N
1624431795.3,286047004.0,N
1624431815.2,286047004.1,N
1624431835.0,286047003.2,N
1624431835.9,286047003.2,N
1624431855.7,286047006.0,Y
1624431875.6,286047001.6,P
1624431895.4,286047004.1,P
1624431915.3,286047004.1,P
1624431935.1,286047001.6,N
1624431955.8,286047004.2,Y
1624431975.7,286047002.5,P
1624431995.5,286046999.8,N
1624432015.4,286047000.3,N
1624432035.2,286047000.0,N
1624432055.0,286047000.4,N
1624432055.9,286047000.4,N
1624432075.8,286046998.6,N
1624432095.6,286046998.2,N
1624432115.5,286046998.9,N
1624432135.3,286046999.2,N
1624432155.1,286046997.7,N
1624432175.9,286046998.0,N
1624432195.7,286046997.1,N
1624432215.5,286046995.4,N
1624432235.4,286046997.6,N
1624432255.2,286046995.3,N
1624432275.1,286046995.0,N
1624432276.0,286046995.0,N
1624432295.8,286046995.9,N
1624432315.6,286046994.0,N
1624432335.5,286046994.6,N
1624432355.3,286046994.7,N
1624432375.2,286046993.6,N
1624432395.9,286046994.6,N
1624432415.7,286046993.5,N
1624432435.6,286046994.2,N
1624432455.4,286046994.6,N
1624432475.3,286046992.1,N
1624432495.1,286046992.0,N
1624432496.0,286046992.0,N
1624432515.8,286046992.6,N
1624432535.7,286046992.6,N
1624432555.5,286046992.2,N
1624432575.3,286046994.4,N
1624432595.2,286046994.5,N
1624432615.0,286046994.0,N
1624432615.9,286046994.0,N
1624432635.8,286046993.8,Y
1624432655.6,286047000.3,P
1624432675.4,286047002.3,N
1624432695.3,286047001.5,N
1624432715.1,286047001.3,N
1624432735.9,286047001.4,N
1624432755.7,286047002.0,N
1624432775.5,286047001.7,N
1624432795.4,286047001.8,N
1624432815.2,286047002.2,N
1624432835.0,286047002.2,N
1624432836.0,286047002.2,N
1624432855.8,286047002.1,N
1624432875.6,286047001.5,N
1624432895.5,286047001.7,N
1624432915.3,286047004.2,N
1624432935.1,286047003.7,N
1624432955.9,286047001.5,N
1624432975.7,286047004.2,N
1624432995.6,286047003.1,N
1624433015.4,286047003.9,N
1624433035.2,286047001.6,N
1624433055.1,286047001.4,N
1624433056.0,286047001.4,N
1624433075.8,286047004.0,N
1624433095.6,286047003.6,N
1624433115.5,286047005.5,Y
1624433135.3,286047000.0,P
1624433155.2,286047002.1,N
1624433175.9,286047001.5,N
1624433195.7,286047001.9,N
1624433215.6,286047001.8,N
1624433235.4,286047003.9,Y
1624433255.3,286047002.8,P
1624433275.1,286047000.8,N
1624433276.0,286047000.8,N
1624433295.8,286047001.0,N
1624433315.7,286046998.5,N
1624433335.5,286047000.9,N
1624433355.4,286047000.4,N
1624433375.2,286047011.9,Y
1624433395.0,286047000.7,P
1624433395.9,286047000.7,P
1624433415.8,286046998.1,P
1624433435.6,286046998.1,N
1624433455.4,286047000.4,N
1624433475.3,286046998.3,N
1624433495.1,286047000.7,N
1624433515.9,286046998.1,N
1624433535.7,286047000.4,N
1624433555.5,286046998.7,N
1624433575.4,286047000.8,N
1624433595.2,286046998.1,N
1624433615.0,286046998.9,N
1624433615.9,286046998.9,N
1624433635.8,286046998.2,N
1624433655.6,286047001.1,N
1624433675.5,286047001.0,N
1624433695.3,286046998.9,N
1624433715.1,286046998.7,N
1624433735.9,286046998.5,N
1624433755.7,286047001.1,N
1624433775.5,286046998.4,N
1624433795.4,286047000.8,N
1624433815.2,286047000.4,N
1624433835.1,286047000.2,N
1624433836.0,286047000.2,N
1624433855.8,286047000.7,N
1624433875.6,286047001.2,N
1624433895.5,286047000.7,N
1624433915.3,286047001.0,N
1624433935.1,286046998.3,N
1624433955.9,286047001.1,N
1624433975.7,286047000.7,N
1624433995.6,286047000.4,N
1624434015.4,286047000.7,N
1624434035.2,286046998.2,N
1624434055.1,286047001.2,N
1624434056.0,286047001.2,N
1624434075.8,286047000.8,N
1624434095.6,286047000.3,N
1624434115.5,286047000.3,N
1624434135.3,286047001.1,N
1624434155.2,286047011.9,Y
1624434175.0,286047001.0,P
1624434175.9,286047001.0,N
1624434195.8,286046998.6,P
1624434215.6,286047000.7,N
1624434235.4,286046998.3,N
1624434255.3,286046998.2,N
1624434275.1,286046999.9,N
1624434295.8,286046998.1,N
1624434315.7,286047001.0,N
1624434335.5,286047000.8,N
1624434355.4,286046998.4,N
1624434375.2,286047000.3,N
1624434395.0,286047001.1,N
1624434395.9,286047001.1,N
1624434415.8,286047000.3,N
1624434435.6,286047001.1,N
1624434455.4,286047000.8,N
1624434475.3,286047001.1,N
1624434495.1,286047000.1,N
1624434515.9,286047000.4,N
1624434535.7,286047000.9,N
1624434555.5,286046998.8,N
1624434575.4,286046996.9,N
1624434595.2,286046997.0,N
1624434615.0,286046996.7,N
1624434616.0,286046996.7,N
1624434635.8,286046997.0,N
1624434655.6,286046997.4,N
1624434675.5,286046995.0,Y
1624434695.3,286046997.0,P
1624434715.1,286046996.8,N
1624434735.9,286046997.3,N
1624434755.7,286046997.5,N
1624434775.6,286046996.8,Y
1624434795.4,286047000.7,P
1624434815.2,286047002.0,N
1624434835.1,286047001.5,N
1624434836.0,286047001.5,N
1624434855.8,286047004.4,N
1624434875.6,286047004.1,N
1624434895.5,286047002.0,N
1624434915.3,286047001.8,N
1624434935.2,286047002.4,N
1624434955.9,286047002.0,N
1624434975.7,286046999.9,N
1624434995.6,286047002.7,N
1624435015.4,286047002.8,N
1624435035.2,286046999.7,N
1624435055.1,286047000.6,N
1624435056.0,286047000.6,N
1624435075.8,286046998.1,N
1624435095.7,286047000.6,N
1624435115.5,286047002.5,N
1624435135.3,286047004.4,N
1624435155.2,286047004.0,N
1624435175.0,286047004.4,N
1624435175.9,286047004.4,N
1624435195.7,286047001.7,N
